ONEWEB-0280 (48998 NORAD) Tracking and Keplerian Element Data

This shows tracking and keplerian element data for the satellite.

Feedback or suggestion? Click here.




ElementValue
Catalog48998
NameONEWEB-0280
Epoch Orbit1384
Epoch Day269.25001157
Epoch Year2021
RAAN211.8761
Inclination87.9039
Eccentricity0.0006873
Argument of Perigee9.3515
Mean Anonmoly80.3559
Mean Motion13.41403506
Decay Rate1.4E-07
L11 48998U 21060AH 21269.25001157 .00000014 00000-0 00000+0 0 9992
L22 48998 87.9039 211.8761 0006873 9.3515 80.3559 13.41403506 13842

Live tracking and technical data element details for ONEWEB-0280 (NORAD 48998). ONEWEB-0280 can be tracked NOW for your location showing map with azimuth and elevation plus other details from your city location.

Track the satellite on the map from your city or location and see movement details for azimuth, elevation, latitude, longitude, range, height, and movement on the map or in text.







IsCatalogInMostPopularTable: catalog: 48998, numindb: 18
Update: records affected: 1



GetName: 48998 ONEWEB-0280

Hit Count: updated at: Sun, 26 Sep 2021 16:29:36 GMT